Home > Weather > Port Vila > Past weeks

Flag for Vanuatu Past Weather in Port Vila, Vanuatu — Yesterday and Last 2 Weeks

Now
70 °F

Passing clouds.


Feels Like: 70 °F
Forecast: 74 / 80 °F
Wind: No wind

Location: Bauerfield Efate

Current Time: Jun 26, 2016 at 9:06:02 PM

Latest Report: Jun 26, 2016 at 8:00 PM


Visibility: N/A

Pressure: 29.98 "Hg

Humidity: 94%

Dew Point: 68 °F

Location of Port VilaLocation

Past Weather in Port Vila — Graph

°F

Port Vila Temperature Yesterday

Maximum temperature yesterday: 84 °F (at 11:00 AM)
Minimum temperature yesterday: 64 °F (at 1:00 AM)
Average temperature yesterday: 73 °F

High & Low Weather Summary for the Past Weeks

 TemperatureHumidityPressure
High84 °F (Jun 22, 2:00 PM)100% (Jun 12, 1:00 AM)30.04 "Hg (Jun 12, 1:00 AM)
Low61 °F (Jun 26, 6:00 AM)58% (Jun 24, 11:00 AM)29.86 "Hg (Jun 15, 2:00 PM)
Average74 °F87%29.95 "Hg
* Reported Jun 11 7:00 PM — Jun 26 7:00 PM, Port Vila, Weather by CustomWeather, © 2016

Note: Actual official high and low records may vary slightly from our data, if they occured in-between our weather recording intervals... More about our weather records

Advertising

Port Vila Weather History for the Previous 24 Hours

Scroll right to see more
 ConditionsComfort  
Time TempWeatherWind HumidityBarometerVisibility
7:00 PM
Sun, Jun 26
72 °FPassing clouds.No wind94%29.95 "HgN/A
6:00 PM75 °FPassing clouds.7 mph89%29.95 "HgN/A
5:00 PM77 °FPassing clouds.10 mph89%29.92 "HgN/A
4:00 PM79 °FScattered clouds.9 mph84%29.92 "HgN/A
3:00 PM81 °FScattered clouds.12 mph79%29.89 "HgN/A
2:00 PM81 °FScattered clouds.10 mph79%29.89 "HgN/A
1:00 PM84 °FScattered clouds.10 mph74%29.92 "HgN/A
12:00 PM82 °FScattered clouds.9 mph79%29.95 "HgN/A
11:00 AM82 °FPassing clouds.10 mph79%29.95 "HgN/A
10:00 AM82 °FPassing clouds.9 mph79%29.95 "HgN/A
9:00 AM79 °FPassing clouds.6 mph84%29.98 "HgN/A
8:00 AM70 °FPassing clouds.No wind100%29.98 "HgN/A
7:00 AM63 °FPassing clouds.3 mph100%29.98 "HgN/A
6:00 AM61 °FPassing clouds.2 mph100%29.98 "HgN/A
5:00 AM63 °FPassing clouds.2 mph100%29.98 "HgN/A
4:00 AM63 °FPassing clouds.3 mph100%29.95 "HgN/A
3:00 AM63 °FPassing clouds.2 mph100%29.95 "HgN/A
2:00 AM63 °FPassing clouds.2 mph100%29.95 "HgN/A
1:00 AM63 °FPassing clouds.2 mph100%29.98 "HgN/A
12:00 AM66 °FPassing clouds.2 mph94%29.98 "HgN/A
11:00 PM
Sat, Jun 25
64 °FPassing clouds.2 mph94%29.98 "HgN/A
10:00 PM64 °FPassing clouds.2 mph100%29.98 "HgN/A
9:00 PM66 °FPassing clouds.2 mph100%29.98 "HgN/A
Weather by CustomWeather, © 2016

See weather overviewHow to use our weather pages